Regional Weather Roundup
Issued by NWS Goodland, KS

Home | Current Version | Previous Version | Graphics & Text | Print | Product List | Glossary On
Versions: 1 2 3 4 5 6 7 8 9 10 11 12 13 14 15 16 17 18 19 20 21 22 23 24 25 26 27 28 29 30 31 32 33 34 35 36 37 38 39 40 41 42 43 44 45 46 47 48 49 50
000
ASUS43 KGLD 011908
RWRGLD

GOODLAND FORECAST AREA HOURLY WEATHER ROUNDUP
NATIONAL WEATHER SERVICE GOODLAND KS
1200 PM MST SUN FEB 01 2015

...OFFICIAL OBSERVATIONS...

CITY           SKY/WX    TMP DP  RH WIND       PRES   REMARKS
GOODLAND KS    FLURRIES  17   9  70 N32G40    30.21F WCI  -3
HILL CITY KS   CLOUDY    18  10  71 N28G38    30.25R WCI  -1
IMPERIAL NEB   MOSUNNY   13   4  67 N29G35    30.26F WCI  -8
MCCOOK NEB     PTSUNNY   16   6  65 NW24      30.27S WCI  -2
AKRON CO       LGT SNOW  17  13  84 N8        30.19S FOG
BURLINGTON CO  CLOUDY    19  11  70 N24G33    30.19F WCI   2
LIMON CO       MOSUNNY   20  14  77 N16       30.15F WCI   6
$$

...UNOFFICIAL OBSERVATIONS...

CITY           SKY/WX    TMP DP  RH WIND       PRES   REMARKS
COLBY KS       CLOUDY    18  12  79 NW29G36   30.21S WCI  -2
GOVE KS          N/A     19  32 100 MISG        N/A
NORTON KS      CLOUDY    16   7  67 NW25G38   30.22S HAZE    WCI  -3
SHARON SPRINGS   N/A     23  15  73 N28G38      N/A  WCI   6
KIT CARSON CO    N/A     25  17  72 MISG        N/A
YUMA CO          N/A     16  10  75 N12         N/A  WCI   3
$$



USA.gov is the U.S. government's official web portal to all federal, state and local government web resources and services.